| time (UTC) | temp C | wind direction | speed KPH | gust KPH | rain 1hr cm | rain 24hr cm | rain mn cm | humidity % | barometer mb |
| 20260506170002 | 15 | 74 | 3.2 | 19.3 | 0.00 | 0.00 | 0.00 | 79 | 1008.2 |
| 20260506163010 | 16 | 81 | 3.2 | 14.5 | 0.00 | 0.00 | 0.00 | 80 | 1008.2 |
| 20260506160002 | 17 | 90 | 1.6 | 16.1 | 0.00 | 0.00 | 0.00 | 78 | 1008.6 |
| 20260506153011 | 17 | 145 | 3.2 | 16.1 | 0.00 | 0.00 | 0.00 | 78 | 1008.8 |
| 20260506150002 | 18 | 127 | 3.2 | 24.1 | 0.00 | 0.00 | 0.00 | 75 | 1008.5 |
| 20260506143010 | 18 | 103 | 6.4 | 22.5 | 0.00 | 0.00 | 0.00 | 74 | 1008.7 |
| 20260506133011 | 17 | 62 | 3.2 | 22.5 | 0.00 | 0.00 | 0.00 | 76 | 1008.5 |
| 20260506130003 | 16 | 77 | 4.8 | 19.3 | 0.00 | 0.00 | 0.00 | 78 | 1008.8 |
| 20260506123011 | 16 | 109 | 3.2 | 16.1 | 0.00 | 0.00 | 0.00 | 82 | 1009.5 |
| 20260506120003 | 14 | 127 | 3.2 | 16.1 | 0.00 | 0.00 | 0.00 | 89 | 1009.4 |
| 20260506113011 | 13 | 63 | 3.2 | 12.9 | 0.00 | 0.00 | 0.00 | 90 | 1009.4 |
| 20260506110003 | 13 | 116 | 0.0 | 14.5 | 0.00 | 0.00 | 0.00 | 90 | 1009.7 |
| 20260506103011 | 12 | 92 | 1.6 | 14.5 | 0.00 | 0.00 | 0.00 | 90 | 1009.6 |
| 20260506100004 | 12 | 91 | 3.2 | 11.3 | 0.00 | 0.00 | 0.00 | 89 | 1009.4 |
| 20260506090003 | 12 | 114 | 3.2 | 14.5 | 0.00 | 0.00 | 0.00 | 84 | 1009.4 |
| 20260506083012 | 13 | 117 | 4.8 | 19.3 | 0.00 | 0.00 | 0.00 | 83 | 1009.5 |
| 20260506073012 | 13 | 119 | 3.2 | 22.5 | 0.00 | 0.00 | 0.00 | 81 | 1009.4 |
| 20260506043012 | 15 | 110 | 4.8 | 14.5 | 0.00 | 0.00 | 0.00 | 81 | 1009.8 |
| 20260506033012 | 16 | 119 | 4.8 | 25.7 | 0.00 | 0.00 | 0.00 | 77 | 1010.0 |
| 20260506023013 | 16 | 107 | 4.8 | 24.1 | 0.00 | 0.00 | 0.00 | 75 | 1009.8 |
| 20260506020005 | 16 | 91 | 4.8 | 25.7 | 0.00 | 0.00 | 0.00 | 75 | 1009.7 |
| 20260506013009 | 16 | 114 | 3.2 | 25.7 | 0.00 | 0.00 | 0.00 | 74 | 1009.4 |
| 20260506003009 | 17 | 130 | 1.6 | 14.5 | 0.00 | 0.00 | 0.00 | 68 | 1008.6 |
| 20260505233009 | 18 | 85 | 3.2 | 32.2 | 0.00 | 0.00 | 0.00 | 67 | 1008.0 |
| 20260505230001 | 19 | 73 | 3.2 | 32.2 | 0.00 | 0.00 | 0.00 | 65 | 1007.6 |
| 20260505223009 | 20 | 79 | 4.8 | 22.5 | 0.00 | 0.00 | 0.00 | 64 | 1007.5 |
| 20260505220001 | 20 | 25 | 8.0 | 24.1 | 0.00 | 0.00 | 0.00 | 62 | 1007.7 |
| 20260505213009 | 20 | 72 | 8.0 | 27.4 | 0.00 | 0.00 | 0.00 | 63 | 1007.5 |
| 20260505210001 | 21 | 94 | 8.0 | 24.1 | 0.00 | 0.00 | 0.00 | 60 | 1007.7 |
| 20260505203009 | 21 | 71 | 9.7 | 32.2 | 0.00 | 0.00 | 0.00 | 59 | 1007.5 |
| 20260505200002 | 22 | 72 | 8.0 | 32.2 | 0.00 | 0.00 | 0.00 | 59 | 1007.8 |
| 20260505193010 | 22 | 78 | 8.0 | 32.2 | 0.00 | 0.00 | 0.00 | 60 | 1007.9 |
| 20260505190001 | 22 | 94 | 11.3 | 24.1 | 0.00 | 0.00 | 0.00 | 59 | 1008.4 |
| 20260505183010 | 23 | 109 | 8.0 | 29.0 | 0.00 | 0.00 | 0.00 | 59 | 1008.4 |
| 20260505180002 | 22 | 93 | 4.8 | 32.2 | 0.00 | 0.00 | 0.00 | 60 | 1008.4 |